Moses Lake, WA
on Tuesday, January 29, 2013

Tuesday
Previous Day Next Day
Daily Summary
 ActualAverageRecord
Temperature
Mean Temperature °F 32°F  
Max Temperature 41°F 39°F 54°F (1984)
Min Temperature 26°F 25°F -2°F (1980)
Degree Days
Heating Degree Days 31 33  
Month to date heating degree days 1091 1021  
Since 1 July heating degree days 3299 3608  
Cooling Degree Days 0 0  
Month to date cooling degree days 0 0  
Year to date cooling degree days 0 0  
Moisture
Dew Point 27°F   
Average Humidity 76    
Maximum Humidity 92    
Minimum Humidity 59    
Precipitation
Precipitation 0.00 in 0.02 in 0.35 in (1986)
Month to date precipitation 0.28 1.10  
Year to date precipitation 0.28 1.10  
Wind
Wind Speed 3 mph   
Max Wind Speed 10 mph   
Max Gust Speed 13 mph   
Visibility 9 miles   
Events     

Key: T is trace of precipitation, MM is missing value
Source: NWS Daily Summary
Time(PST)TemperatureDew PointHumidity Pressure Visibility Wind DirectionWind SpeedGust SpeedPrecipitationEvents Conditions
12:52 AM 28.0°F 24.1°F 85% 29.94 in 7.0 miles Calm Calm - N/A   Clear
1:52 AM 28.0°F 25.0°F 88% 29.96 in 7.0 miles Calm Calm - N/A   Clear
2:52 AM 28.0°F 24.1°F 85% 29.98 in 7.0 miles Calm Calm - N/A   Clear
3:52 AM 27.0°F 24.1°F 89% 30.01 in 7.0 miles NNW 4.6 mph - N/A   Clear
4:52 AM 27.0°F 24.1°F 89% 30.03 in 7.0 miles North 4.6 mph - N/A   Clear
5:52 AM 28.0°F 24.1°F 85% 30.06 in 9.0 miles North 6.9 mph - N/A   Clear
6:52 AM 27.0°F 24.1°F 89% 30.10 in 10.0 miles North 5.8 mph - N/A   Clear
7:52 AM 27.0°F 23.0°F 85% 30.14 in 10.0 miles NNE 9.2 mph - N/A   Clear
8:52 AM 28.9°F 25.0°F 85% 30.17 in 10.0 miles Calm Calm - N/A   Clear
9:52 AM 32.0°F 27.0°F 82% 30.20 in 10.0 miles NNW 8.1 mph - N/A   Clear
10:52 AM 34.0°F 27.0°F 75% 30.23 in 10.0 miles North 4.6 mph - N/A   Mostly Cloudy
11:52 AM 37.9°F 27.0°F 65% 30.23 in 10.0 miles North 5.8 mph - N/A   Scattered Clouds
12:52 PM 39.9°F 27.0°F 60% 30.23 in 10.0 miles Calm Calm - N/A   Mostly Cloudy
1:52 PM 39.9°F 27.0°F 60% 30.23 in 10.0 miles Calm Calm - N/A   Overcast
2:52 PM 39.9°F 27.0°F 60% 30.23 in 10.0 miles SE 3.5 mph - N/A   Overcast
3:52 PM 39.0°F 28.0°F 65% 30.22 in 10.0 miles Calm Calm - N/A   Overcast
4:52 PM 37.0°F 28.9°F 73% 30.21 in 10.0 miles SSE 3.5 mph - N/A   Clear
5:52 PM 36.0°F 28.9°F 76% 30.20 in 10.0 miles Calm Calm - N/A   Mostly Cloudy
6:52 PM 36.0°F 28.9°F 76% 30.17 in 10.0 miles South 4.6 mph - N/A   Clear
7:52 PM 34.0°F 28.9°F 82% 30.16 in 10.0 miles North 4.6 mph - N/A   Clear
8:52 PM 33.1°F 28.0°F 82% 30.16 in 10.0 miles NNE 3.5 mph - N/A   Clear
9:52 PM 34.0°F 28.9°F 82% 30.17 in 10.0 miles Calm Calm - N/A   Overcast
10:52 PM 35.1°F 28.9°F 78% 30.16 in 10.0 miles SSW 4.6 mph - N/A   Clear
11:52 PM 33.1°F 28.9°F 85% 30.16 in 10.0 miles SW 5.8 mph - N/A   Clear
Moon Phase
Jan. 29 Feb. 03 Feb. 10 Feb. 17 Feb. 25
Sunrise:07:26 AM (PST) Moon Rise:08:13 PM (PST)1/29
Sunset:04:55 PM (PST) Moon Set:08:11 AM (PST)1/29

Copyright © 2014 The Weather Underground, Inc.